Actual water levels and discharges of Elbe river

Guaranteed water level and forecast    Ústí nad Labem-Střekov

Guaranteed water level
Nad 275 cm
on 18.05.2021 more information
Forecast
345 cm
on 19.05.2021 07:00
Tendency
Slowly decreasing
on 19.05.2021 metodika tendence
Forecast
(Source data ČHMÚ a Povodí Labe)

Děčín

Date and time (UTC) H (cm) Q (m³/s)
19. 5. 2021 03:50 325 539
19. 5. 2021 03:00 327 544
19. 5. 2021 02:00 329 549
19. 5. 2021 01:00 331 555
19. 5. 2021 00:00 334 562
18. 5. 2021 23:00 336 568
18. 5. 2021 22:00 338 573
18. 5. 2021 21:00 339 576
18. 5. 2021 20:00 339 576
18. 5. 2021 19:00 340 578
18. 5. 2021 18:00 341 581
18. 5. 2021 17:00 341 581
18. 5. 2021 16:00 340 578
18. 5. 2021 15:00 339 576

H - water level, Q - discharge

Ústí nad Labem

Date and time (UTC) H (cm) Q (m³/s)
19. 5. 2021 03:50 342 517
19. 5. 2021 03:00 342 517
19. 5. 2021 02:00 344 522
19. 5. 2021 01:00 346 527
19. 5. 2021 00:00 348 533
18. 5. 2021 23:00 350 538
18. 5. 2021 22:00 352 543
18. 5. 2021 21:00 357 556
18. 5. 2021 20:00 360 564
18. 5. 2021 19:00 361 567
18. 5. 2021 18:00 362 569
18. 5. 2021 17:00 363 572
18. 5. 2021 16:00 363 572
18. 5. 2021 15:00 365 577

H - water level, Q - discharge
more information

Mělník

Date and time (UTC) H (cm) Q (m³/s)
19. 5. 2021 03:50 320 -
19. 5. 2021 03:00 319 -
19. 5. 2021 02:00 319 -
19. 5. 2021 01:00 320 -
19. 5. 2021 00:00 321 -
18. 5. 2021 23:00 323 -
18. 5. 2021 22:00 321 -
18. 5. 2021 21:00 320 -
18. 5. 2021 20:00 319 -
18. 5. 2021 19:00 319 -
18. 5. 2021 18:00 324 -
18. 5. 2021 17:00 327 -
18. 5. 2021 16:00 327 -
18. 5. 2021 15:00 327 -

H - water level, Q - discharge
more information

Kostelec nad Labem

Date and time (UTC) H (cm) Q (m³/s)
19. 5. 2021 03:50 426 -
19. 5. 2021 03:00 426 128
19. 5. 2021 02:00 425 128
19. 5. 2021 01:00 425 126
19. 5. 2021 00:00 425 125
18. 5. 2021 23:00 425 125
18. 5. 2021 22:00 424 126
18. 5. 2021 21:00 425 124
18. 5. 2021 20:00 425 125
18. 5. 2021 19:00 424 124
18. 5. 2021 18:00 424 123
18. 5. 2021 17:00 423 123
18. 5. 2021 16:00 428 121
18. 5. 2021 15:00 428 132

H - water level, Q - discharge
more information

Přelouč

Date and time (UTC) H (cm) Q (m³/s)
19. 5. 2021 03:50 137 101
19. 5. 2021 03:00 138 102
19. 5. 2021 02:00 138 102
19. 5. 2021 01:00 138 102
19. 5. 2021 00:00 139 104
18. 5. 2021 23:00 139 104
18. 5. 2021 22:00 140 105
18. 5. 2021 21:00 140 105
18. 5. 2021 20:00 140 105
18. 5. 2021 19:00 141 106
18. 5. 2021 18:00 141 106
18. 5. 2021 17:00 142 107
18. 5. 2021 16:00 143 108
18. 5. 2021 15:00 144 109

H - water level, Q - discharge
more information

Němčice

Date and time (UTC) H (cm) Q (m³/s)
19. 5. 2021 03:40 174 64
19. 5. 2021 03:00 175 65
19. 5. 2021 02:00 175 65
19. 5. 2021 01:00 174 64
19. 5. 2021 00:00 174 64
18. 5. 2021 23:00 176 65
18. 5. 2021 22:00 177 66
18. 5. 2021 21:00 178 67
18. 5. 2021 20:00 178 67
18. 5. 2021 19:00 177 66
18. 5. 2021 18:00 179 67
18. 5. 2021 17:00 180 68
18. 5. 2021 16:00 181 68
18. 5. 2021 15:00 181 68

H - water level, Q - discharge
Source data
Labe Basin Vltava Basin Povodí Moravy ČHMÚ